BEIDOU-3 M10 (C24)

Last updated on Oct. 29, 2020, 5:53 a.m. UTC

1 43582U 18062B   20302.36994034 -.00000055  00000-0  00000-0 0  9995
2 43582  54.5053 252.5565 0005708 329.5733  27.4303  1.86232236 15309
UTC
Height (km)
Latitude
Longitude
Inclination
Orbital Period
UTC large
Height (km)
Speed (km/s)
/
Latitude / Longitude
Inclination (degrees)
Orbital Period (minutes)
Azimuth
Elevation
Range (km)
Doppler Factor
iOS Compass Heading
iOS Angle

Next 30 passes for location: Hong Kong

Rise time Rise Azimuth (degrees) Set time Set Azimuth (degrees) Duration Max altitude (degrees)

No matching passes for this satellites